owner,sensor,date,latitude,longitude,air_pressure(mBar),qcFlag 
LOOP,urn:ioos:station:wmo:lopl1:1,2016-02-01T00:35:00Z,28.8850,-90.0250,1014.1,11111222 
LOOP,urn:ioos:station:wmo:lopl1:1,2016-02-01T01:35:00Z,28.8850,-90.0250,1014.1,11111222 
LOOP,urn:ioos:station:wmo:lopl1:1,2016-02-01T02:35:00Z,28.8850,-90.0250,1014.1,11111222 
LOOP,urn:ioos:station:wmo:lopl1:1,2016-02-01T03:35:00Z,28.8850,-90.0250,1014.1,11111222 
LOOP,urn:ioos:station:wmo:lopl1:1,2016-02-01T04:35:00Z,28.8850,-90.0250,1014.1,11111222 
LOOP,urn:ioos:station:wmo:lopl1:1,2016-02-01T05:35:00Z,28.8850,-90.0250,1014.1,11111222 
LOOP,urn:ioos:station:wmo:lopl1:1,2016-02-01T06:35:00Z,28.8850,-90.0250,1013.1,11111222 
LOOP,urn:ioos:station:wmo:lopl1:1,2016-02-01T07:35:00Z,28.8850,-90.0250,1013.1,11111222 
LOOP,urn:ioos:station:wmo:lopl1:1,2016-02-01T08:35:00Z,28.8850,-90.0250,1013.1,11111222 
LOOP,urn:ioos:station:wmo:lopl1:1,2016-02-01T09:35:00Z,28.8850,-90.0250,1013.1,11111222 
LOOP,urn:ioos:station:wmo:lopl1:1,2016-02-01T10:35:00Z,28.8850,-90.0250,1013.1,11111222 
LOOP,urn:ioos:station:wmo:lopl1:1,2016-02-01T14:35:00Z,28.8850,-90.0250,1015.1,11111222 
LOOP,urn:ioos:station:wmo:lopl1:1,2016-02-01T15:00:00Z,28.8850,-90.0250,1015.1,11111222 
LOOP,urn:ioos:station:wmo:lopl1:1,2016-02-01T16:00:00Z,28.8850,-90.0250,1015.1,11111222 
LOOP,urn:ioos:station:wmo:lopl1:1,2016-02-01T17:00:00Z,28.8850,-90.0250,1015.1,11111222 
LOOP,urn:ioos:station:wmo:lopl1:1,2016-02-01T18:00:00Z,28.8850,-90.0250,1014.1,11111222 
LOOP,urn:ioos:station:wmo:lopl1:1,2016-02-01T19:00:00Z,28.8850,-90.0250,1013.1,11111222 
LOOP,urn:ioos:station:wmo:lopl1:1,2016-02-01T20:00:00Z,28.8850,-90.0250,1012.1,11111222 
LOOP,urn:ioos:station:wmo:lopl1:1,2016-02-01T21:00:00Z,28.8850,-90.0250,1011.1,11111222 
LOOP,urn:ioos:station:wmo:lopl1:1,2016-02-01T22:00:00Z,28.8850,-90.0250,1011.1,11111222 
LOOP,urn:ioos:station:wmo:lopl1:1,2016-02-01T23:00:00Z,28.8850,-90.0250,1011.1,11111222 
LOOP,urn:ioos:station:wmo:lopl1:1,2016-02-02T00:05:00Z,28.8850,-90.0250,1011.1,11111222 
LOOP,urn:ioos:station:wmo:lopl1:1,2016-02-02T01:05:00Z,28.8850,-90.0250,1011.1,11111222 
LOOP,urn:ioos:station:wmo:lopl1:1,2016-02-02T02:05:00Z,28.8850,-90.0250,1011.1,11111222 
LOOP,urn:ioos:station:wmo:lopl1:1,2016-02-02T03:05:00Z,28.8850,-90.0250,1011.1,11111222 
LOOP,urn:ioos:station:wmo:lopl1:1,2016-02-02T04:05:00Z,28.8850,-90.0250,1011.1,11111222 
LOOP,urn:ioos:station:wmo:lopl1:1,2016-02-02T05:05:00Z,28.8850,-90.0250,1010.1,11111222 
LOOP,urn:ioos:station:wmo:lopl1:1,2016-02-02T06:05:00Z,28.8850,-90.0250,1009.1,11111222 
LOOP,urn:ioos:station:wmo:lopl1:1,2016-02-02T07:05:00Z,28.8850,-90.0250,1009.1,11111222 
LOOP,urn:ioos:station:wmo:lopl1:1,2016-02-02T08:05:00Z,28.8850,-90.0250,1009.1,11111222 
LOOP,urn:ioos:station:wmo:lopl1:1,2016-02-02T09:05:00Z,28.8850,-90.0250,1009.1,11111222 
LOOP,urn:ioos:station:wmo:lopl1:1,2016-02-02T10:05:00Z,28.8850,-90.0250,1008.1,11111222 
LOOP,urn:ioos:station:wmo:lopl1:1,2016-02-02T11:05:00Z,28.8850,-90.0250,1008.1,11111222 
LOOP,urn:ioos:station:wmo:lopl1:1,2016-02-02T12:05:00Z,28.8850,-90.0250,1009.1,11111222 
LOOP,urn:ioos:station:wmo:lopl1:1,2016-02-02T13:05:00Z,28.8850,-90.0250,1009.1,11111222 
LOOP,urn:ioos:station:wmo:lopl1:1,2016-02-02T14:05:00Z,28.8850,-90.0250,1010.1,11111222 
LOOP,urn:ioos:station:wmo:lopl1:1,2016-02-02T15:05:00Z,28.8850,-90.0250,1010.1,11111222 
LOOP,urn:ioos:station:wmo:lopl1:1,2016-02-02T16:10:00Z,28.8850,-90.0250,1011.1,11111222 
LOOP,urn:ioos:station:wmo:lopl1:1,2016-02-02T17:10:00Z,28.8850,-90.0250,1011.1,11111222 
LOOP,urn:ioos:station:wmo:lopl1:1,2016-02-02T18:10:00Z,28.8850,-90.0250,1011.1,11111222 
LOOP,urn:ioos:station:wmo:lopl1:1,2016-02-02T19:15:00Z,28.8850,-90.0250,1009.1,11111222 
LOOP,urn:ioos:station:wmo:lopl1:1,2016-02-02T20:15:00Z,28.8850,-90.0250,1008.1,11111222 
LOOP,urn:ioos:station:wmo:lopl1:1,2016-02-02T21:15:00Z,28.8850,-90.0250,1008.1,11111222 
LOOP,urn:ioos:station:wmo:lopl1:1,2016-02-02T22:15:00Z,28.8850,-90.0250,1009.1,11111222 
LOOP,urn:ioos:station:wmo:lopl1:1,2016-02-02T23:15:00Z,28.8850,-90.0250,1009.1,11111222 
LOOP,urn:ioos:station:wmo:lopl1:1,2016-02-03T00:15:00Z,28.8850,-90.0250,1009.1,11111222 
LOOP,urn:ioos:station:wmo:lopl1:1,2016-02-03T01:15:00Z,28.8850,-90.0250,1010.1,11111222 
LOOP,urn:ioos:station:wmo:lopl1:1,2016-02-03T02:15:00Z,28.8850,-90.0250,1010.1,11111222 
LOOP,urn:ioos:station:wmo:lopl1:1,2016-02-03T03:20:00Z,28.8850,-90.0250,1010.1,11111222 
LOOP,urn:ioos:station:wmo:lopl1:1,2016-02-03T04:20:00Z,28.8850,-90.0250,1010.1,11111222 
LOOP,urn:ioos:station:wmo:lopl1:1,2016-02-03T05:20:00Z,28.8850,-90.0250,1009.1,11111222 
LOOP,urn:ioos:station:wmo:lopl1:1,2016-02-03T06:20:00Z,28.8850,-90.0250,1009.1,11111222 
LOOP,urn:ioos:station:wmo:lopl1:1,2016-02-03T07:25:00Z,28.8850,-90.0250,1009.1,11111222 
LOOP,urn:ioos:station:wmo:lopl1:1,2016-02-03T08:25:00Z,28.8850,-90.0250,1009.1,11111222 
LOOP,urn:ioos:station:wmo:lopl1:1,2016-02-03T09:25:00Z,28.8850,-90.0250,1009.1,11111222 
LOOP,urn:ioos:station:wmo:lopl1:1,2016-02-03T10:25:00Z,28.8850,-90.0250,1009.1,11111222 
LOOP,urn:ioos:station:wmo:lopl1:1,2016-02-03T11:25:00Z,28.8850,-90.0250,1011.1,11111222 
LOOP,urn:ioos:station:wmo:lopl1:1,2016-02-03T12:25:00Z,28.8850,-90.0250,1012.1,11111222 
LOOP,urn:ioos:station:wmo:lopl1:1,2016-02-03T13:25:00Z,28.8850,-90.0250,1013.1,11111222 
LOOP,urn:ioos:station:wmo:lopl1:1,2016-02-03T14:25:00Z,28.8850,-90.0250,1014.1,11111222 
LOOP,urn:ioos:station:wmo:lopl1:1,2016-02-03T15:25:00Z,28.8850,-90.0250,1015.1,11111222 
LOOP,urn:ioos:station:wmo:lopl1:1,2016-02-03T16:25:00Z,28.8850,-90.0250,1015.1,11111222 
LOOP,urn:ioos:station:wmo:lopl1:1,2016-02-03T17:31:00Z,28.8850,-90.0250,1016.1,11111222 
LOOP,urn:ioos:station:wmo:lopl1:1,2016-02-03T18:31:00Z,28.8850,-90.0250,1015.1,11111222 
LOOP,urn:ioos:station:wmo:lopl1:1,2016-02-03T19:31:00Z,28.8850,-90.0250,1015.1,11111222 
LOOP,urn:ioos:station:wmo:lopl1:1,2016-02-03T20:31:00Z,28.8850,-90.0250,1015.1,11111222 
LOOP,urn:ioos:station:wmo:lopl1:1,2016-02-03T21:31:00Z,28.8850,-90.0250,1015.1,11111222 
LOOP,urn:ioos:station:wmo:lopl1:1,2016-02-03T22:31:00Z,28.8850,-90.0250,1016.1,11111222 
LOOP,urn:ioos:station:wmo:lopl1:1,2016-02-03T23:31:00Z,28.8850,-90.0250,1017.1,11111222 
LOOP,urn:ioos:station:wmo:lopl1:1,2016-02-04T00:31:00Z,28.8850,-90.0250,1018.1,11111222 
LOOP,urn:ioos:station:wmo:lopl1:1,2016-02-04T01:31:00Z,28.8850,-90.0250,1019.1,11111222 
LOOP,urn:ioos:station:wmo:lopl1:1,2016-02-04T02:31:00Z,28.8850,-90.0250,1019.1,11111222 
LOOP,urn:ioos:station:wmo:lopl1:1,2016-02-04T03:31:00Z,28.8850,-90.0250,1019.1,11111222 
LOOP,urn:ioos:station:wmo:lopl1:1,2016-02-04T04:41:00Z,28.8850,-90.0250,1020.1,11111222 
LOOP,urn:ioos:station:wmo:lopl1:1,2016-02-04T05:41:00Z,28.8850,-90.0250,1020.1,11111222 
LOOP,urn:ioos:station:wmo:lopl1:1,2016-02-04T06:41:00Z,28.8850,-90.0250,1020.1,11111222 
LOOP,urn:ioos:station:wmo:lopl1:1,2016-02-04T07:41:00Z,28.8850,-90.0250,1021.1,11111222 
LOOP,urn:ioos:station:wmo:lopl1:1,2016-02-04T08:41:00Z,28.8850,-90.0250,1021.1,11111222 
LOOP,urn:ioos:station:wmo:lopl1:1,2016-02-04T09:41:00Z,28.8850,-90.0250,1022.1,11111222 
LOOP,urn:ioos:station:wmo:lopl1:1,2016-02-04T10:46:00Z,28.8850,-90.0250,1022.1,11111222 
LOOP,urn:ioos:station:wmo:lopl1:1,2016-02-04T11:46:00Z,28.8850,-90.0250,1022.1,11111222 
LOOP,urn:ioos:station:wmo:lopl1:1,2016-02-04T12:46:00Z,28.8850,-90.0250,1023.1,11111222 
LOOP,urn:ioos:station:wmo:lopl1:1,2016-02-04T13:46:00Z,28.8850,-90.0250,1025.1,11111222 
LOOP,urn:ioos:station:wmo:lopl1:1,2016-02-04T14:46:00Z,28.8850,-90.0250,1026.1,11111222 
LOOP,urn:ioos:station:wmo:lopl1:1,2016-02-04T15:46:00Z,28.8850,-90.0250,1026.1,11111222 
LOOP,urn:ioos:station:wmo:lopl1:1,2016-02-04T16:51:00Z,28.8850,-90.0250,1027.1,11111222 
LOOP,urn:ioos:station:wmo:lopl1:1,2016-02-04T17:51:00Z,28.8850,-90.0250,1026.1,11111222 
LOOP,urn:ioos:station:wmo:lopl1:1,2016-02-04T18:51:00Z,28.8850,-90.0250,1025.1,11111222 
LOOP,urn:ioos:station:wmo:lopl1:1,2016-02-04T19:51:00Z,28.8850,-90.0250,1025.1,11111222 
LOOP,urn:ioos:station:wmo:lopl1:1,2016-02-04T20:51:00Z,28.8850,-90.0250,1025.1,11111222 
LOOP,urn:ioos:station:wmo:lopl1:1,2016-02-04T21:51:00Z,28.8850,-90.0250,1025.1,11111222 
LOOP,urn:ioos:station:wmo:lopl1:1,2016-02-04T22:51:00Z,28.8850,-90.0250,1026.1,11111222 
LOOP,urn:ioos:station:wmo:lopl1:1,2016-02-04T23:51:00Z,28.8850,-90.0250,1027.1,11111222 
LOOP,urn:ioos:station:wmo:lopl1:1,2016-02-05T00:51:00Z,28.8850,-90.0250,1027.1,11111222 
LOOP,urn:ioos:station:wmo:lopl1:1,2016-02-05T01:51:00Z,28.8850,-90.0250,1028.1,11111222 
LOOP,urn:ioos:station:wmo:lopl1:1,2016-02-05T02:51:00Z,28.8850,-90.0250,1029.1,11111222 
LOOP,urn:ioos:station:wmo:lopl1:1,2016-02-05T03:51:00Z,28.8850,-90.0250,1029.1,11111222 
LOOP,urn:ioos:station:wmo:lopl1:1,2016-02-05T04:51:00Z,28.8850,-90.0250,1030.1,11111222 
LOOP,urn:ioos:station:wmo:lopl1:1,2016-02-05T05:51:00Z,28.8850,-90.0250,1030.1,11111222 
LOOP,urn:ioos:station:wmo:lopl1:1,2016-02-05T06:51:00Z,28.8850,-90.0250,1030.1,11111222 
LOOP,urn:ioos:station:wmo:lopl1:1,2016-02-05T07:51:00Z,28.8850,-90.0250,1030.1,11111222 
LOOP,urn:ioos:station:wmo:lopl1:1,2016-02-05T08:51:00Z,28.8850,-90.0250,1030.1,11111222 
LOOP,urn:ioos:station:wmo:lopl1:1,2016-02-05T09:51:00Z,28.8850,-90.0250,1030.1,11111222 
LOOP,urn:ioos:station:wmo:lopl1:1,2016-02-05T10:51:00Z,28.8850,-90.0250,1030.1,11111222 
LOOP,urn:ioos:station:wmo:lopl1:1,2016-02-05T11:51:00Z,28.8850,-90.0250,1031.1,11111222 
LOOP,urn:ioos:station:wmo:lopl1:1,2016-02-05T12:51:00Z,28.8850,-90.0250,1032.1,11111222 
LOOP,urn:ioos:station:wmo:lopl1:1,2016-02-05T13:51:00Z,28.8850,-90.0250,1032.1,11111222 
LOOP,urn:ioos:station:wmo:lopl1:1,2016-02-05T15:11:00Z,28.8850,-90.0250,1032.1,11111222 
LOOP,urn:ioos:station:wmo:lopl1:1,2016-02-05T15:26:00Z,28.8850,-90.0250,1032.1,11111222 
LOOP,urn:ioos:station:wmo:lopl1:1,2016-02-05T16:41:00Z,28.8850,-90.0250,1032.1,11111222 
LOOP,urn:ioos:station:wmo:lopl1:1,2016-02-05T17:41:00Z,28.8850,-90.0250,1032.1,11111222 
LOOP,urn:ioos:station:wmo:lopl1:1,2016-02-05T18:41:00Z,28.8850,-90.0250,1031.1,11111222 
LOOP,urn:ioos:station:wmo:lopl1:1,2016-02-05T19:41:00Z,28.8850,-90.0250,1030.1,11111222 
LOOP,urn:ioos:station:wmo:lopl1:1,2016-02-05T20:41:00Z,28.8850,-90.0250,1030.1,11111222 
LOOP,urn:ioos:station:wmo:lopl1:1,2016-02-05T21:46:00Z,28.8850,-90.0250,1029.1,11111222 
LOOP,urn:ioos:station:wmo:lopl1:1,2016-02-05T22:46:00Z,28.8850,-90.0250,1029.1,11111222 
LOOP,urn:ioos:station:wmo:lopl1:1,2016-02-05T23:46:00Z,28.8850,-90.0250,1029.1,11111222 
LOOP,urn:ioos:station:wmo:lopl1:1,2016-02-06T00:46:00Z,28.8850,-90.0250,1029.1,11111222 
LOOP,urn:ioos:station:wmo:lopl1:1,2016-02-06T01:46:00Z,28.8850,-90.0250,1028.1,11111222 
LOOP,urn:ioos:station:wmo:lopl1:1,2016-02-06T02:46:00Z,28.8850,-90.0250,1028.1,11111222 
LOOP,urn:ioos:station:wmo:lopl1:1,2016-02-06T03:46:00Z,28.8850,-90.0250,1028.1,11111222 
LOOP,urn:ioos:station:wmo:lopl1:1,2016-02-06T04:46:00Z,28.8850,-90.0250,1029.1,11111222 
LOOP,urn:ioos:station:wmo:lopl1:1,2016-02-06T05:46:00Z,28.8850,-90.0250,1029.1,11111222 
LOOP,urn:ioos:station:wmo:lopl1:1,2016-02-06T06:46:00Z,28.8850,-90.0250,1028.1,11111222 
LOOP,urn:ioos:station:wmo:lopl1:1,2016-02-06T07:46:00Z,28.8850,-90.0250,1028.1,11111222 
LOOP,urn:ioos:station:wmo:lopl1:1,2016-02-06T08:46:00Z,28.8850,-90.0250,1028.1,11111222 
LOOP,urn:ioos:station:wmo:lopl1:1,2016-02-06T09:46:00Z,28.8850,-90.0250,1027.1,11111222 
LOOP,urn:ioos:station:wmo:lopl1:1,2016-02-06T10:46:00Z,28.8850,-90.0250,1027.1,11111222 
LOOP,urn:ioos:station:wmo:lopl1:1,2016-02-06T11:46:00Z,28.8850,-90.0250,1027.1,11111222 
LOOP,urn:ioos:station:wmo:lopl1:1,2016-02-06T12:46:00Z,28.8850,-90.0250,1026.1,11111222 
LOOP,urn:ioos:station:wmo:lopl1:1,2016-02-06T13:46:00Z,28.8850,-90.0250,1026.1,11111222 
LOOP,urn:ioos:station:wmo:lopl1:1,2016-02-06T14:46:00Z,28.8850,-90.0250,1027.1,11111222 
LOOP,urn:ioos:station:wmo:lopl1:1,2016-02-06T15:01:00Z,28.8850,-90.0250,1027.1,11111222 
LOOP,urn:ioos:station:wmo:lopl1:1,2016-02-06T16:01:00Z,28.8850,-90.0250,1027.1,11111222 
LOOP,urn:ioos:station:wmo:lopl1:1,2016-02-06T17:01:00Z,28.8850,-90.0250,1027.1,11111222 
LOOP,urn:ioos:station:wmo:lopl1:1,2016-02-06T18:01:00Z,28.8850,-90.0250,1026.1,11111222 
LOOP,urn:ioos:station:wmo:lopl1:1,2016-02-06T19:01:00Z,28.8850,-90.0250,1025.1,11111222 
LOOP,urn:ioos:station:wmo:lopl1:1,2016-02-06T20:01:00Z,28.8850,-90.0250,1024.1,11111222 
LOOP,urn:ioos:station:wmo:lopl1:1,2016-02-06T21:01:00Z,28.8850,-90.0250,1024.1,11111222 
LOOP,urn:ioos:station:wmo:lopl1:1,2016-02-06T22:01:00Z,28.8850,-90.0250,1024.1,11111222 
LOOP,urn:ioos:station:wmo:lopl1:1,2016-02-06T23:01:00Z,28.8850,-90.0250,1025.1,11111222 
LOOP,urn:ioos:station:wmo:lopl1:1,2016-02-07T00:01:00Z,28.8850,-90.0250,1025.1,11111222 
LOOP,urn:ioos:station:wmo:lopl1:1,2016-02-07T01:01:00Z,28.8850,-90.0250,1025.1,11111222 
LOOP,urn:ioos:station:wmo:lopl1:1,2016-02-07T02:01:00Z,28.8850,-90.0250,1025.1,11111222 
LOOP,urn:ioos:station:wmo:lopl1:1,2016-02-07T03:01:00Z,28.8850,-90.0250,1026.1,11111222 
LOOP,urn:ioos:station:wmo:lopl1:1,2016-02-07T04:06:00Z,28.8850,-90.0250,1026.1,11111222 
LOOP,urn:ioos:station:wmo:lopl1:1,2016-02-07T05:06:00Z,28.8850,-90.0250,1025.1,11111222 
LOOP,urn:ioos:station:wmo:lopl1:1,2016-02-07T06:06:00Z,28.8850,-90.0250,1025.1,11111222 
LOOP,urn:ioos:station:wmo:lopl1:1,2016-02-07T07:06:00Z,28.8850,-90.0250,1025.1,11111222 
LOOP,urn:ioos:station:wmo:lopl1:1,2016-02-07T08:06:00Z,28.8850,-90.0250,1024.1,11111222 
LOOP,urn:ioos:station:wmo:lopl1:1,2016-02-07T09:06:00Z,28.8850,-90.0250,1025.1,11111222 
LOOP,urn:ioos:station:wmo:lopl1:1,2016-02-07T10:06:00Z,28.8850,-90.0250,1025.1,11111222 
LOOP,urn:ioos:station:wmo:lopl1:1,2016-02-07T11:06:00Z,28.8850,-90.0250,1025.1,11111222 
LOOP,urn:ioos:station:wmo:lopl1:1,2016-02-07T12:06:00Z,28.8850,-90.0250,1026.1,11111222 
LOOP,urn:ioos:station:wmo:lopl1:1,2016-02-07T13:06:00Z,28.8850,-90.0250,1026.1,11111222 
LOOP,urn:ioos:station:wmo:lopl1:1,2016-02-07T14:11:00Z,28.8850,-90.0250,1026.1,11111222 
LOOP,urn:ioos:station:wmo:lopl1:1,2016-02-07T15:11:00Z,28.8850,-90.0250,1026.1,11111222 
LOOP,urn:ioos:station:wmo:lopl1:1,2016-02-07T16:11:00Z,28.8850,-90.0250,1026.1,11111222 
LOOP,urn:ioos:station:wmo:lopl1:1,2016-02-07T17:11:00Z,28.8850,-90.0250,1026.1,11111222 
LOOP,urn:ioos:station:wmo:lopl1:1,2016-02-07T18:11:00Z,28.8850,-90.0250,1025.1,11111222 
LOOP,urn:ioos:station:wmo:lopl1:1,2016-02-07T19:11:00Z,28.8850,-90.0250,1024.1,11111222 
LOOP,urn:ioos:station:wmo:lopl1:1,2016-02-07T20:11:00Z,28.8850,-90.0250,1023.1,11111222 
LOOP,urn:ioos:station:wmo:lopl1:1,2016-02-07T21:11:00Z,28.8850,-90.0250,1023.1,11111222 
LOOP,urn:ioos:station:wmo:lopl1:1,2016-02-07T22:11:00Z,28.8850,-90.0250,1022.1,11111222 
LOOP,urn:ioos:station:wmo:lopl1:1,2016-02-07T23:11:00Z,28.8850,-90.0250,1022.1,11111222 
LOOP,urn:ioos:station:wmo:lopl1:1,2016-02-08T00:21:00Z,28.8850,-90.0250,1022.1,11111222 
LOOP,urn:ioos:station:wmo:lopl1:1,2016-02-08T01:21:00Z,28.8850,-90.0250,1023.1,11111222 
LOOP,urn:ioos:station:wmo:lopl1:1,2016-02-08T02:21:00Z,28.8850,-90.0250,1023.1,11111222 
LOOP,urn:ioos:station:wmo:lopl1:1,2016-02-08T03:21:00Z,28.8850,-90.0250,1023.1,11111222 
LOOP,urn:ioos:station:wmo:lopl1:1,2016-02-08T04:21:00Z,28.8850,-90.0250,1022.1,11111222 
LOOP,urn:ioos:station:wmo:lopl1:1,2016-02-08T05:21:00Z,28.8850,-90.0250,1022.1,11111222 
LOOP,urn:ioos:station:wmo:lopl1:1,2016-02-08T06:21:00Z,28.8850,-90.0250,1021.1,11111222 
LOOP,urn:ioos:station:wmo:lopl1:1,2016-02-08T07:21:00Z,28.8850,-90.0250,1021.1,11111222 
LOOP,urn:ioos:station:wmo:lopl1:1,2016-02-08T08:21:00Z,28.8850,-90.0250,1021.1,11111222 
LOOP,urn:ioos:station:wmo:lopl1:1,2016-02-08T09:21:00Z,28.8850,-90.0250,1020.1,11111222 
LOOP,urn:ioos:station:wmo:lopl1:1,2016-02-08T10:21:00Z,28.8850,-90.0250,1020.1,11111222 
LOOP,urn:ioos:station:wmo:lopl1:1,2016-02-08T11:21:00Z,28.8850,-90.0250,1020.1,11111222 
LOOP,urn:ioos:station:wmo:lopl1:1,2016-02-08T12:26:00Z,28.8850,-90.0250,1021.1,11111222 
LOOP,urn:ioos:station:wmo:lopl1:1,2016-02-08T13:26:00Z,28.8850,-90.0250,1021.1,11111222 
LOOP,urn:ioos:station:wmo:lopl1:1,2016-02-08T14:26:00Z,28.8850,-90.0250,1022.1,11111222 
LOOP,urn:ioos:station:wmo:lopl1:1,2016-02-08T15:26:00Z,28.8850,-90.0250,1021.1,11111222 
LOOP,urn:ioos:station:wmo:lopl1:1,2016-02-08T16:26:00Z,28.8850,-90.0250,1021.1,11111222 
LOOP,urn:ioos:station:wmo:lopl1:1,2016-02-08T17:26:00Z,28.8850,-90.0250,1020.1,11111222 
LOOP,urn:ioos:station:wmo:lopl1:1,2016-02-08T18:26:00Z,28.8850,-90.0250,1019.1,11111222 
LOOP,urn:ioos:station:wmo:lopl1:1,2016-02-08T19:31:00Z,28.8850,-90.0250,1018.1,11111222 
LOOP,urn:ioos:station:wmo:lopl1:1,2016-02-08T20:31:00Z,28.8850,-90.0250,1017.1,11111222 
LOOP,urn:ioos:station:wmo:lopl1:1,2016-02-08T21:31:00Z,28.8850,-90.0250,1017.1,11111222 
LOOP,urn:ioos:station:wmo:lopl1:1,2016-02-08T22:31:00Z,28.8850,-90.0250,1017.1,11111222 
LOOP,urn:ioos:station:wmo:lopl1:1,2016-02-08T23:31:00Z,28.8850,-90.0250,1017.1,11111222 
LOOP,urn:ioos:station:wmo:lopl1:1,2016-02-09T00:31:00Z,28.8850,-90.0250,1018.1,11111222 
LOOP,urn:ioos:station:wmo:lopl1:1,2016-02-09T01:31:00Z,28.8850,-90.0250,1019.1,11111222 
LOOP,urn:ioos:station:wmo:lopl1:1,2016-02-09T02:31:00Z,28.8850,-90.0250,1020.1,11111222 
LOOP,urn:ioos:station:wmo:lopl1:1,2016-02-09T03:31:00Z,28.8850,-90.0250,1021.1,11111222 
LOOP,urn:ioos:station:wmo:lopl1:1,2016-02-09T04:31:00Z,28.8850,-90.0250,1021.1,11111222 
LOOP,urn:ioos:station:wmo:lopl1:1,2016-02-09T05:31:00Z,28.8850,-90.0250,1021.1,11111222 
LOOP,urn:ioos:station:wmo:lopl1:1,2016-02-09T06:31:00Z,28.8850,-90.0250,1021.1,11111222 
LOOP,urn:ioos:station:wmo:lopl1:1,2016-02-09T07:31:00Z,28.8850,-90.0250,1021.1,11111222 
LOOP,urn:ioos:station:wmo:lopl1:1,2016-02-09T08:31:00Z,28.8850,-90.0250,1021.1,11111222 
LOOP,urn:ioos:station:wmo:lopl1:1,2016-02-09T09:31:00Z,28.8850,-90.0250,1020.1,11111222 
LOOP,urn:ioos:station:wmo:lopl1:1,2016-02-09T10:36:00Z,28.8850,-90.0250,1021.1,11111222 
LOOP,urn:ioos:station:wmo:lopl1:1,2016-02-09T11:36:00Z,28.8850,-90.0250,1021.1,11111222 
LOOP,urn:ioos:station:wmo:lopl1:1,2016-02-09T12:36:00Z,28.8850,-90.0250,1022.1,11111222 
LOOP,urn:ioos:station:wmo:lopl1:1,2016-02-09T13:36:00Z,28.8850,-90.0250,1023.1,11111222 
LOOP,urn:ioos:station:wmo:lopl1:1,2016-02-09T14:36:00Z,28.8850,-90.0250,1023.1,11111222 
LOOP,urn:ioos:station:wmo:lopl1:1,2016-02-09T15:36:00Z,28.8850,-90.0250,1024.1,11111222 
LOOP,urn:ioos:station:wmo:lopl1:1,2016-02-09T16:36:00Z,28.8850,-90.0250,1023.1,11111222 
LOOP,urn:ioos:station:wmo:lopl1:1,2016-02-09T17:36:00Z,28.8850,-90.0250,1022.1,11111222 
LOOP,urn:ioos:station:wmo:lopl1:1,2016-02-09T18:36:00Z,28.8850,-90.0250,1021.1,11111222 
LOOP,urn:ioos:station:wmo:lopl1:1,2016-02-09T19:36:00Z,28.8850,-90.0250,1020.1,11111222 
LOOP,urn:ioos:station:wmo:lopl1:1,2016-02-09T19:46:00Z,28.8850,-90.0250,1020.1,11111222 
LOOP,urn:ioos:station:wmo:lopl1:1,2016-02-09T20:46:00Z,28.8850,-90.0250,1020.1,11111222 
LOOP,urn:ioos:station:wmo:lopl1:1,2016-02-09T21:46:00Z,28.8850,-90.0250,1020.1,11111222 
LOOP,urn:ioos:station:wmo:lopl1:1,2016-02-09T22:46:00Z,28.8850,-90.0250,1020.1,11111222 
LOOP,urn:ioos:station:wmo:lopl1:1,2016-02-09T23:46:00Z,28.8850,-90.0250,1021.1,11111222 
LOOP,urn:ioos:station:wmo:lopl1:1,2016-02-10T00:46:00Z,28.8850,-90.0250,1022.1,11111222 
LOOP,urn:ioos:station:wmo:lopl1:1,2016-02-10T01:46:00Z,28.8850,-90.0250,1022.1,11111222 
LOOP,urn:ioos:station:wmo:lopl1:1,2016-02-10T02:51:00Z,28.8850,-90.0250,1023.1,11111222 
LOOP,urn:ioos:station:wmo:lopl1:1,2016-02-10T03:51:00Z,28.8850,-90.0250,1023.1,11111222 
LOOP,urn:ioos:station:wmo:lopl1:1,2016-02-10T04:51:00Z,28.8850,-90.0250,1024.1,11111222 
LOOP,urn:ioos:station:wmo:lopl1:1,2016-02-10T05:51:00Z,28.8850,-90.0250,1024.1,11111222 
LOOP,urn:ioos:station:wmo:lopl1:1,2016-02-10T06:51:00Z,28.8850,-90.0250,1024.1,11111222 
LOOP,urn:ioos:station:wmo:lopl1:1,2016-02-10T07:51:00Z,28.8850,-90.0250,1024.1,11111222 
LOOP,urn:ioos:station:wmo:lopl1:1,2016-02-10T08:51:00Z,28.8850,-90.0250,1024.1,11111222 
LOOP,urn:ioos:station:wmo:lopl1:1,2016-02-10T09:51:00Z,28.8850,-90.0250,1025.1,11111222 
LOOP,urn:ioos:station:wmo:lopl1:1,2016-02-10T10:51:00Z,28.8850,-90.0250,1025.1,11111222 
LOOP,urn:ioos:station:wmo:lopl1:1,2016-02-10T11:56:00Z,28.8850,-90.0250,1026.1,11111222 
LOOP,urn:ioos:station:wmo:lopl1:1,2016-02-10T12:56:00Z,28.8850,-90.0250,1027.1,11111222 
LOOP,urn:ioos:station:wmo:lopl1:1,2016-02-10T18:51:00Z,28.8850,-90.0250,1028.1,11111222 
LOOP,urn:ioos:station:wmo:lopl1:1,2016-02-10T19:11:00Z,28.8850,-90.0250,1028.1,11111222 
LOOP,urn:ioos:station:wmo:lopl1:1,2016-02-10T19:26:00Z,28.8850,-90.0250,1028.1,11111222 
LOOP,urn:ioos:station:wmo:lopl1:1,2016-02-10T19:46:00Z,28.8850,-90.0250,1028.1,11111222 
LOOP,urn:ioos:station:wmo:lopl1:1,2016-02-10T20:46:00Z,28.8850,-90.0250,1027.1,11111222 
LOOP,urn:ioos:station:wmo:lopl1:1,2016-02-10T21:46:00Z,28.8850,-90.0250,1027.1,11111222 
LOOP,urn:ioos:station:wmo:lopl1:1,2016-02-10T22:46:00Z,28.8850,-90.0250,1027.1,11111222 
LOOP,urn:ioos:station:wmo:lopl1:1,2016-02-10T23:46:00Z,28.8850,-90.0250,1027.1,11111222 
LOOP,urn:ioos:station:wmo:lopl1:1,2016-02-11T00:46:00Z,28.8850,-90.0250,1026.1,11111222 
LOOP,urn:ioos:station:wmo:lopl1:1,2016-02-11T01:46:00Z,28.8850,-90.0250,1026.1,11111222 
LOOP,urn:ioos:station:wmo:lopl1:1,2016-02-11T02:46:00Z,28.8850,-90.0250,1026.1,11111222 
LOOP,urn:ioos:station:wmo:lopl1:1,2016-02-11T03:46:00Z,28.8850,-90.0250,1026.1,11111222 
LOOP,urn:ioos:station:wmo:lopl1:1,2016-02-11T04:46:00Z,28.8850,-90.0250,1026.1,11111222 
LOOP,urn:ioos:station:wmo:lopl1:1,2016-02-11T05:46:00Z,28.8850,-90.0250,1025.1,11111222 
LOOP,urn:ioos:station:wmo:lopl1:1,2016-02-11T06:46:00Z,28.8850,-90.0250,1024.1,11111222 
LOOP,urn:ioos:station:wmo:lopl1:1,2016-02-11T07:46:00Z,28.8850,-90.0250,1024.1,11111222 
LOOP,urn:ioos:station:wmo:lopl1:1,2016-02-11T08:46:00Z,28.8850,-90.0250,1024.1,11111222 
LOOP,urn:ioos:station:wmo:lopl1:1,2016-02-11T09:46:00Z,28.8850,-90.0250,1024.1,11111222 
LOOP,urn:ioos:station:wmo:lopl1:1,2016-02-11T10:46:00Z,28.8850,-90.0250,1024.1,11111222 
LOOP,urn:ioos:station:wmo:lopl1:1,2016-02-11T12:06:00Z,28.8850,-90.0250,1024.1,11111222 
LOOP,urn:ioos:station:wmo:lopl1:1,2016-02-11T13:06:00Z,28.8850,-90.0250,1025.1,11111222 
LOOP,urn:ioos:station:wmo:lopl1:1,2016-02-11T14:06:00Z,28.8850,-90.0250,1025.1,11111222 
LOOP,urn:ioos:station:wmo:lopl1:1,2016-02-11T15:06:00Z,28.8850,-90.0250,1025.1,11111222 
LOOP,urn:ioos:station:wmo:lopl1:1,2016-02-11T16:06:00Z,28.8850,-90.0250,1026.1,11111222 
LOOP,urn:ioos:station:wmo:lopl1:1,2016-02-11T17:06:00Z,28.8850,-90.0250,1025.1,11111222 
LOOP,urn:ioos:station:wmo:lopl1:1,2016-02-11T18:06:00Z,28.8850,-90.0250,1024.1,11111222 
LOOP,urn:ioos:station:wmo:lopl1:1,2016-02-11T19:06:00Z,28.8850,-90.0250,1024.1,11111222 
LOOP,urn:ioos:station:wmo:lopl1:1,2016-02-11T20:06:00Z,28.8850,-90.0250,1023.1,11111222 
LOOP,urn:ioos:station:wmo:lopl1:1,2016-02-11T21:06:00Z,28.8850,-90.0250,1023.1,11111222 
LOOP,urn:ioos:station:wmo:lopl1:1,2016-02-11T22:06:00Z,28.8850,-90.0250,1023.1,11111222 
LOOP,urn:ioos:station:wmo:lopl1:1,2016-02-11T23:06:00Z,28.8850,-90.0250,1023.1,11111222 
LOOP,urn:ioos:station:wmo:lopl1:1,2016-02-12T00:06:00Z,28.8850,-90.0250,1024.1,11111222 
LOOP,urn:ioos:station:wmo:lopl1:1,2016-02-12T01:06:00Z,28.8850,-90.0250,1024.1,11111222 
LOOP,urn:ioos:station:wmo:lopl1:1,2016-02-12T02:06:00Z,28.8850,-90.0250,1024.1,11111222 
LOOP,urn:ioos:station:wmo:lopl1:1,2016-02-12T03:06:00Z,28.8850,-90.0250,1024.1,11111222 
LOOP,urn:ioos:station:wmo:lopl1:1,2016-02-12T04:06:00Z,28.8850,-90.0250,1025.1,11111222 
LOOP,urn:ioos:station:wmo:lopl1:1,2016-02-12T05:06:00Z,28.8850,-90.0250,1025.1,11111222 
LOOP,urn:ioos:station:wmo:lopl1:1,2016-02-12T06:06:00Z,28.8850,-90.0250,1024.1,11111222 
LOOP,urn:ioos:station:wmo:lopl1:1,2016-02-12T07:06:00Z,28.8850,-90.0250,1024.1,11111222 
LOOP,urn:ioos:station:wmo:lopl1:1,2016-02-12T08:06:00Z,28.8850,-90.0250,1023.1,11111222 
LOOP,urn:ioos:station:wmo:lopl1:1,2016-02-12T09:11:00Z,28.8850,-90.0250,1023.1,11111222 